Location: Gipe Farm
(40.9466°N, 95.5370°W)
Time: 14:44:00
(UTC-05:00)

Daily predictions for brighter satellites

Satellite Brightness Start Highest point End
(mag) Time Altitude Azimuth Time Altitude Azimuth Time Altitude Azimuth
Cosmos 44 Rocket 3.6 20:34:24 10° NW 20:39:07 67° WSW 20:43:54 10° SSE
Cosmos 2151 Rocket 3.9 20:35:05 10° SSE 20:39:15 45° E 20:43:28 10° NNE
EXPRESS MD2 2.6 20:37:13 10° WSW 20:39:31 78° NNW 20:43:10 10° NE
Cosmos 1954 Rocket 4.1 20:35:12 10° NNW 20:40:33 84° ENE 20:45:52 10° SSE
DELTA 2 R/B (1) 4.4 20:39:05 10° W 20:44:20 42° SSW 20:49:36 10° SE
ATLAS 3B R/B 3.8 20:42:22 10° NNW 20:48:05 28° NE 20:53:36 10° E
Meteor 1-19 Rocket 4.4 20:45:56 10° N 20:51:47 63° ENE 20:57:30 10° SSE
Okean 1 3.8 20:48:28 10° NNW 20:52:24 63° W 20:56:21 10° S
Cosmos 1536 Rocket 3.7 20:49:47 10° N 20:54:01 51° E 20:58:14 10° SSE
Cosmos 2360 Rocket 3.1 20:49:56 10° SSE 20:54:25 25° ESE 20:58:56 10° NE
Cosmos 1980 Rocket 3.6 20:50:04 10° SW 20:55:23 43° WNW 21:00:44 10° NNE
COSMOS 2428 4.5 20:55:48 10° ESE 20:56:39 11° E 20:57:48 10° E
Cosmos 1939 Rocket 3.5 20:54:19 10° SE 20:57:57 36° ENE 21:01:35 10° N
Cosmos 1536 3.4 20:54:38 10° SSE 20:58:25 38° E 21:02:11 10° NNE
Lacrosse 5 rocket 2.6 20:55:11 10° WNW 20:58:31 32° SW 21:01:58 10° SSE
Cosmos 1741 Rocket 4.2 20:53:56 10° N 20:59:06 55° ENE 21:04:15 10° SE
USA 267 3.8 20:53:32 10° SSE 20:59:58 58° SW 21:06:26 10° NW
NOSS 2-3 (D) 3.8 20:56:12 10° SSW 21:00:44 60° ESE 21:05:58 10° NE
Envisat 3.1 20:55:51 10° SSE 21:00:51 63° ENE 21:05:53 10° N
Meteor 1-5 Rocket 4.5 21:03:21 10° SSE 21:08:18 40° E 21:13:14 10° NNE
H-2A R/B 4.0 21:08:55 10° ENE 21:10:26 11° ENE 21:11:57 10° NE
CZ-2D R/B 4.2 21:08:57 10° S 21:12:42 49° W 21:16:27 10° NNW
CZ-4B DEB 4.2 21:15:44 18° E 21:16:09 18° ENE 21:18:13 10° NNE
Meteor 2-4 Rocket 3.7 21:13:10 10° N 21:18:46 75° E 21:24:29 10° SSE
ATLAS 2AS CENTAUR R/B 3.0 21:19:23 10° SSW 21:26:59 73° ESE 21:35:04 10° NE
Delta 2 Rocket 4.2 21:23:34 10° SW 21:27:13 32° SSE 21:28:55 24° SE
USA 186 3.2 21:24:31 10° S 21:27:41 39° W 21:30:54 10° NNW
Cosmos 1110 Rocket 4.2 21:24:30 10° S 21:29:26 48° ESE 21:34:24 10° NNE
Helios 1B rocket 2.7 21:26:53 10° NNE 21:30:50 44° E 21:33:57 15° SSE
BREEZE M DEB (TANK) 3.5 21:22:00 10° SW 21:31:31 42° SSE 21:33:38 22° E
SPOT 5 4.3 21:33:36 19° E 21:34:55 21° ENE 21:38:23 10° NNE
NOSS 2-3 (E) 4.4 21:33:03 10° SW 21:37:41 64° NW 21:43:08 10° NNE
Lacrosse 5 1.8 21:32:41 10° SW 21:37:46 90° NW 21:42:52 10° NE
Cosmos 883 Rocket 4.4 21:34:19 10° N 21:40:29 79° E 21:45:59 13° S
Cosmos 1850 Rocket 4.5 21:35:26 10° NNW 21:40:41 61° WSW 21:45:35 12° S
Centaur D AC-29 4.3 21:36:32 10° SSW 21:41:06 12° S 21:43:39 11° SSE
Cosmos 1331 Rocket 4.0 21:37:25 10° S 21:42:27 56° ESE 21:47:34 10° NNE
SL-8 R/B 4.3 21:41:01 10° NW 21:45:40 48° NNE 21:48:14 24° E
SeaSat 1 2.8 21:42:31 10° NNE 21:47:26 69° WNW 21:52:19 10° SW
Atlas Centaur 2 3.9 21:41:04 10° WSW 21:48:04 31° SSW 21:51:30 22° SSE
ARGOS 3.7 21:49:54 30° ESE 21:51:52 41° ENE 21:56:53 10° N
Okean 1 Rocket 3.3 21:50:15 10° SSW 21:54:34 69° W 21:58:57 10° N
Cosmos 220 Rocket 4.1 21:50:50 10° NNW 21:55:09 75° WSW 21:57:12 30° S
Tiangong 1 1.9 21:55:38 10° W 21:57:45 35° SW 21:57:45 35° SW
Cosmos 1025 Rocket 2.9 21:54:12 10° N 21:58:28 85° ENE 22:00:09 37° S
YAOGAN 6 3.2 21:56:40 25° SSW 21:58:30 51° W 22:01:57 10° NNW
Cosmos 1607 4.2 21:52:08 10° NW 21:58:35 71° WSW 22:02:27 25° SSE
Okean 2 3.2 21:55:42 10° N 21:59:48 76° E 22:00:54 47° SSE
Cosmos 2263 Rocket 2.8 21:56:11 10° NNW 22:01:42 52° WSW 22:05:41 18° S
Cosmos 2278 Rocket 4.0 22:01:31 10° N 22:05:06 17° NE 22:06:39 15° ENE
Cosmos 2322 Rocket 3.9 22:00:29 10° WSW 22:05:38 35° WNW 22:10:50 10° N
Okean 1-7 Rocket 3.6 22:04:07 10° N 22:08:38 79° W 22:10:26 36° S
Cosmos 1844 Rocket 3.3 22:03:26 10° N 22:08:47 40° ENE 22:10:10 34° E
Abrixas rocket 3.8 22:06:32 10° NW 22:09:23 27° NNE 22:09:53 26° NNE
Resurs 01 Rocket 4.4 22:06:52 10° SW 22:09:36 16° W 22:12:19 10° NW
Cosmos 1818 3.8 22:10:06 44° SE 22:10:23 44° ESE 22:15:32 10° NE
SPOT 1/Viking Rocket 4.2 22:10:42 36° E 22:11:29 38° ENE 22:16:17 10° N
Cosmos 2237 4.1 22:06:14 10° SSW 22:11:53 71° ESE 22:17:33 10° NNE
Cosmos 1515 3.5 22:08:44 10° N 22:12:33 90° W 22:12:54 73° S
Cosmos 1975 3.2 22:16:24 47° NE 22:16:24 47° NE 22:19:37 10° NNE
Terra 3.4 22:16:55 20° ENE 22:16:55 20° ENE 22:20:05 10° NNE
SL-16 R/B 4.3 22:13:11 10° WSW 22:18:00 28° NW 22:22:52 10° N
Helios 1A 4.2 22:18:03 22° SSW 22:20:15 38° W 22:24:15 10° NNW
MetOp-B 4.0 22:19:30 44° SSE 22:21:18 89° ENE 22:26:41 10° NNW
BREEZE-M DEB 4.0 22:13:27 10° WNW 22:21:24 41° N 22:22:33 32° NE
NOSS 3-2 (A) 4.4 22:15:15 10° NNW 22:22:30 51° NE 22:25:38 35° ESE
Cosmos 2219 Rocket 3.1 22:24:26 31° ENE 22:24:26 31° ENE 22:28:06 10° NE
Cosmos 2315 Rocket 4.3 22:18:03 10° NNW 22:24:14 64° W 22:28:16 23° SSW
USA 238 DEB 3.7 22:17:40 10° NW 22:24:49 84° NE 22:27:24 44° SE
USA 238 3.7 22:17:46 10° NNW 22:24:55 84° NE 22:27:30 44° SE
Meteor 1-29 4.2 22:23:39 10° N 22:26:53 40° WNW 22:27:46 33° WSW
Cosmos 1500 3.3 22:27:02 70° WSW 22:27:10 71° W 22:31:04 10° N
Meteor 1-12 Rocket 4.1 22:26:33 52° SSE 22:27:48 67° E 22:33:25 10° NNE
ERS-1 Rocket 3.2 22:26:41 40° S 22:28:23 66° WSW 22:33:24 10° NNW
Cosmos 2322 4.0 22:23:26 10° SSW 22:29:02 65° WNW 22:34:43 10° NNE
USA 245 3.7 22:28:30 69° SE 22:29:03 79° ENE 22:33:19 10° N
Cosmos 2360 Rocket 3.2 22:32:43 10° SW 22:38:06 45° WNW 22:43:30 10° NNE
ATLAS 3B R/B 2.7 22:32:42 10° NW 22:39:21 69° WSW 22:41:11 48° S
COSMOS 2428 2.6 22:37:40 38° SSW 22:39:58 85° ESE 22:45:44 10° NNE
Cosmos 1745 Rocket 3.8 22:45:49 64° SE 22:46:38 73° E 22:52:47 10° N
Cosmos 1844 3.7 22:41:50 10° NNW 22:47:29 63° ENE 22:47:46 62° E
Cosmos 1892 Rocket 3.9 22:43:19 10° NNW 22:47:37 62° W 22:47:37 62° W
H-2A R/B 1.8 22:49:01 87° S 22:49:07 90° W 22:54:07 10° NNW
Cosmos 1437 Rocket 4.4 22:54:37 28° NNE 22:54:37 28° NNE 22:56:34 10° NNE
Cosmos 1238 Rocket 4.3 22:46:08 10° NNW 22:52:47 65° W 22:54:49 43° SSW
Cosmos 2333 Rocket 3.0 22:55:01 37° NE 22:55:01 37° NE 22:58:39 10° NNE
Cosmos 2333 4.3 22:58:36 44° SW 23:00:24 72° WNW 23:06:02 10° NNE
Cosmos 1544 Rocket 4.3 23:01:28 52° WNW 23:01:28 52° WNW 23:05:40 10° N
NOSS 3-2 (C) 4.1 22:54:15 10° NNW 23:01:46 66° NE 23:03:28 54° ESE
Cosmos 1486 Rocket 4.5 23:01:20 10° NNW 23:06:24 51° WSW 23:06:31 51° WSW
Cosmos 2237 Rocket 3.6 23:12:24 27° NE 23:12:24 27° NE 23:15:02 10° NE
Cosmos 1386 Rocket 4.3 23:10:15 84° SSE 23:10:28 87° E 23:16:48 10° N
GP-B 4.5 23:07:28 10° N 23:10:00 33° NNE 23:10:00 33° NNE
SPOT 5 3.7 23:12:51 42° W 23:12:51 42° W 23:17:11 10° NNW
Cosmos 1455 Rocket 4.2 23:14:10 42° WNW 23:14:10 42° WNW 23:18:00 10° N
Lacrosse 5 4.2 23:17:20 10° WNW 23:21:20 23° NNW 23:25:22 10° NNE
NOSS 3-4 (A) 3.5 23:28:46 80° N 23:28:46 80° N 23:34:58 10° NNE
NOSS 3-4 (C) 3.5 23:28:58 78° N 23:28:58 78° N 23:35:04 10° NNE
CENTAUR R/B 3.7 23:21:21 10° NNW 23:28:47 45° NE 23:30:30 40° ENE
Nadezhda 1 Rocket 4.5 23:31:15 10° NNW 23:37:21 52° W 23:37:46 52° WSW
Cosmos 2278 Rocket 2.8 23:44:12 10° NNW 23:48:29 53° NNW 23:48:29 53° NNW
Cosmos 1844 Rocket 4.2 23:47:39 10° NW 23:51:49 28° W 23:51:49 28° W
Terra 3.5 23:55:49 31° NW 23:55:49 31° NW 23:58:38 10° NNW
